TimePST,TemperatureF,Dew PointF,Humidity,Sea Level PressureIn,VisibilityMPH,Wind Direction,Wind SpeedMPH,Gust SpeedMPH,PrecipitationIn,Events,Conditions,WindDirDegrees,DateUTC
12:55 AM,44.1,39.9,85,30.13,6.0,Calm,Calm,-,N/A,,Clear,0,2013-02-07 08:55:00
1:55 AM,44.1,39.0,82,30.12,6.0,Calm,Calm,-,N/A,,Haze,0,2013-02-07 09:55:00
2:55 AM,42.1,39.0,89,30.12,4.0,Calm,Calm,-,N/A,,Clear,0,2013-02-07 10:55:00
3:55 AM,44.1,39.9,85,30.12,4.0,Calm,Calm,-,N/A,,Clear,0,2013-02-07 11:55:00
4:55 AM,42.1,37.9,85,30.13,4.0,Calm,Calm,-,N/A,,Clear,0,2013-02-07 12:55:00
5:55 AM,45.0,39.0,80,30.14,5.0,ENE,3.5,-,N/A,,Haze,60,2013-02-07 13:55:00
6:55 AM,41.0,37.0,86,30.16,3.0,Calm,Calm,-,N/A,,Clear,0,2013-02-07 14:55:00
7:55 AM,46.9,42.1,83,30.17,4.0,East,4.6,-,N/A,,Haze,80,2013-02-07 15:55:00
8:55 AM,53.1,45.0,74,30.17,4.0,ENE,3.5,-,N/A,,Haze,60,2013-02-07 16:55:00
9:55 AM,57.9,46.0,65,30.17,6.0,Calm,Calm,-,N/A,,Haze,0,2013-02-07 17:55:00
10:55 AM,59.0,45.0,60,30.16,10.0,West,5.8,-,N/A,,Scattered Clouds,280,2013-02-07 18:55:00
11:55 AM,60.1,45.0,57,30.14,10.0,Variable,5.8,-,N/A,,Partly Cloudy,0,2013-02-07 19:55:00
12:55 PM,60.1,46.9,62,30.10,10.0,WSW,10.4,-,N/A,,Mostly Cloudy,240,2013-02-07 20:55:00
1:55 PM,59.0,46.9,64,30.09,10.0,West,11.5,-,N/A,,Overcast,260,2013-02-07 21:55:00
2:55 PM,59.0,45.0,60,30.07,10.0,West,12.7,-,N/A,,Overcast,260,2013-02-07 22:55:00
3:55 PM,57.9,46.0,65,30.06,10.0,West,8.1,-,N/A,,Scattered Clouds,270,2013-02-07 23:55:00
4:55 PM,57.9,45.0,62,30.05,10.0,WSW,6.9,-,N/A,,Scattered Clouds,240,2013-02-08 00:55:00
5:55 PM,57.0,43.0,59,30.04,10.0,WSW,3.5,-,N/A,,Overcast,240,2013-02-08 01:55:00
6:55 PM,55.9,46.9,72,30.03,10.0,SSE,3.5,-,N/A,,Mostly Cloudy,150,2013-02-08 02:55:00
7:55 PM,55.9,48.0,75,30.03,10.0,Calm,Calm,-,N/A,,Overcast,0,2013-02-08 03:55:00
9:55 PM,50.0,44.1,80,30.03,10.0,WNW,3.5,-,N/A,,Partly Cloudy,290,2013-02-08 05:55:00
10:14 PM,51.8,44.6,76,30.00,10.0,Calm,Calm,-,N/A,,Mostly Cloudy,0,2013-02-08 06:14:00
10:55 PM,54.0,44.1,69,30.02,10.0,WSW,3.5,-,N/A,,Mostly Cloudy,250,2013-02-08 06:55:00
11:34 PM,51.8,42.8,71,29.98,10.0,West,12.7,-,N/A,,Partly Cloudy,280,2013-02-08 07:34:00
11:55 PM,52.0,41.0,66,30.01,10.0,West,15.0,-,N/A,,Clear,270,2013-02-08 07:55:00